Regional Weather Roundup
Issued by NWS

Home | Current Version | Previous Version | Text Only | Print | Product List | Glossary Off
Versions: 1 2 3 4 5 6 7 8 9 10 11 12 13 14 15 16 17 18 19 20 21 22 23 24 25 26 27 28 29 30 31 32 33 34 35 36 37 38 39 40 41 42 43 44 45 46 47 48 49 50

898
ASUS44 KJAN 260903
RWRMS

MISSISSIPPI HOURLY WEATHER ROUNDUP
NATIONAL WEATHER SERVICE JACKSON MS
300 AM CST MON JAN 26 2015

NOTE: "FAIR: INDICATES FEW OR NO CLOUDS BELOW 12,000 FEET WITH NO
SIGNIFICANT WEATHER AND/OR OBSTRUCTIONS TO VISIBILITY.

MSZ001>002-007>008-010>013-018>021-025>028-034>036-261000-
NORTHWEST MISSISSIPPI

CITY           SKY/WX    TMP DP  RH WIND       PRES   REMARKS
CLARKSDALE     CLOUDY    41  36  81 NW12      30.05R
CLEVELAND      CLOUDY    44  38  78 N15       30.04R
GREENWOOD      CLOUDY    46  36  68 NW10G16   30.02R
GREENVILLE     CLOUDY    46  35  65 NW16G23   30.05R
GRENADA        CLOUDY    43  36  75 NW8       30.00R
OLIVE BRANCH   CLOUDY    37  36  93 NW13G22   30.00R WCI  29
OXFORD         CLOUDY    39  32  75 NW17      30.00R WCI  30
TUNICA         CLOUDY    41  34  75 NW18G24   30.04R
$$

MSZ003>006-009-014>017-022>024-029>033-037>039-261000-
NORTHEAST MISSISSIPPI

CITY           SKY/WX    TMP DP  RH WIND       PRES   REMARKS
COLUMBUS AFB   CLOUDY    44  36  74 NW18G24   29.94R
CORINTH        CLOUDY    41  36  81 NW18G28   29.93R
GOLDN TRIANGLE CLOUDY    45  36  70 NW8G18    29.93S
STARKVILLE     CLOUDY    43  36  75 NW7G17    29.95S
TUPELO         CLOUDY    43  36  76 N10G25    29.94R
$$

MSZ040-058-261000-
CENTRAL MISSISSIPPI

CITY           SKY/WX    TMP DP  RH WIND       PRES   REMARKS
JACKSON INTL   MOCLDY    47  34  60 NW12      30.01R
JACKSON HAWKNS CLOUDY    45  34  65 NW9       30.02R
MERIDIAN KEY   CLOUDY    46  33  60 NW12      29.96R
MERIDIAN NAS   CLOUDY    47  33  58 NW13      29.95S
RAYMOND        PTSUNNY   46  41  81 MISG      30.02S
VICKSBURG      CLEAR     45  33  63 NW6       30.07R
$$

MSZ059>079-261000-
SOUTH MISSISSIPPI

CITY           SKY/WX    TMP DP  RH WIND       PRES   REMARKS
BROOKHAVEN     FAIR      46  34  61 NW12      30.03F
HATTIESBURG    CLEAR     49  35  58 NW12      30.01R
MCCOMB         CLEAR     48  33  56 NW13      30.02S
NATCHEZ        CLEAR     46  30  53 NW8       30.07R
PINE BELT      CLEAR     46  30  53 NW8G17    30.00S
$$

MSZ080>082-261000-
COASTAL MISSISSIPPI

CITY           SKY/WX    TMP DP  RH WIND       PRES   REMARKS
BILOXI         CLEAR     49  38  64 VRB2      30.00R
PASCAGOULA     CLEAR     49  36  61 W7        30.00R
GULFPORT       CLEAR     47  37  68 W5        30.00R
$$



USA.gov is the U.S. government's official web portal to all federal, state and local government web resources and services.